CAPE
0 21 353 538 844 1127 1261 1396 1583 1626 1713 1713 1709 1640 1482 1940 1649 1671 1626 1456 1698 1778 1620 1578 1643 1248 1106 1013 1377 993 1228 1191 1139 1411 1549 1459 1494 1243 1184 1194 1327 1337 1389
0 31 299 455 824 1043 1287 1352 1672 1697 1841 1589 1694 1560 1607 1767 1909 1899 1787 1934 1999 1820 1883 1701 1506 1756 1537 1285 986 1418 1554 1430 1366 1356 1473 1534 1385 1430 1424 1360 1400 1567 1455
0 79 409 602 822 1066 1159 1586 1661 1733 1537 1709 1911 1740 1708 1669 1677 1592 1462 1539 1363 1156 1408 1521 1473 1315 1306 1254 1455 1311 1266 1396 1395 1298 1196 741 615 856 906 949 982 1139 1376
0 165 573 585 914 1185 1356 1518 1500 1722 1922 1984 1890 1772 1798 1843 1674 1505 1200 1198 1557 1791 940 1314 1455 1332 1225 1079 1148 1242 1351 1217 1078 876 621 800 719 658 784 1138 1237 1135 858
0 314 769 810 1014 1365 1561 1835 2031 1917 2053 2034 1844 1706 1697 1654 1775 1119 672 631 620 847 1235 1057 1291 1178 1070 976 800 820 900 1038 641 158 312 496 862 1059 881 944 943 758 1020
15 431 904 1007 1069 1430 1593 1864 1768 1871 1889 1879 1756 1597 1481 1446 1270 979 911 635 527 357 310 482 747 661 619 330 191 385 918 1447 649 314 303 779 862 1275 1214 1175 720 781 1022
64 430 857 1089 1152 1372 1899 1715 1846 1840 2021 1944 1725 1558 1635 1640 1651 1845 1519 1328 795 516 235 232 364 545 346 48 311 790 915 852 203 174 425 667 1070 996 890 1239 899 759 837
50 469 712 1145 1261 1474 2002 1875 1973 2033 2187 1941 1775 1784 1922 1859 1881 1760 1758 1644 1240 994 614 453 488 321 90 12 640 914 631 372 73 0 40 102 263 306 855 1059 868 698 662
274 521 833 1121 1305 1530 1908 2054 1958 2183 2132 1778 1579 1686 1695 1717 1868 1935 1852 1804 1531 1272 1084 1013 716 476 282 196 359 1061 1025 774 36 107 167 208 416 493 445 448 498 528 591
330 476 877 968 1092 1624 1848 2057 2005 2203 1975 1773 1187 1257 1313 1565 1813 1850 1347 1511 1343 1018 675 452 273 162 222 232 290 1278 423 134 41 89 93 99 476 749 687 821 965 771 852
246 356 686 702 827 1412 1713 2058 2058 1647 1625 1736 1417 1204 819 647 832 858 1286 1496 1528 1428 1107 691 566 463 361 309 417 33 5 0 0 0 0 3 53 179 399 327 312 346 350
189 236 257 445 730 1097 1521 1795 1501 1656 1650 1426 894 717 323 417 853 1238 1264 920 999 1297 1536 1500 1251 1044 937 674 323 350 121 2 0 0 0 0 0 60 66 48 30 23 25
206 231 210 267 461 577 697 1023 949 1239 1254 1118 1048 1001 973 942 905 768 732 323 294 732 1028 1229 1289 1376 1184 1041 737 361 320 85 0 0 0 0 0 44 30 3 0 0 0
35 80 129 183 146 269 110 483 707 773 825 799 870 908 746 565 486 418 432 409 592 861 886 1106 1158 1216 1386 1308 1087 839 357 57 0 0 0 0 12 59 91 48 21 13 5
0 13 42 37 2 40 10 105 504 722 938 980 1026 1068 910 577 692 767 817 520 489 475 596 782 827 1016 1131 1180 1207 1106 978 381 13 0 0 0 29 68 167 209 166 116 94
0 0 0 0 0 0 0 3 305 487 800 957 1051 1011 702 676 847 733 374 412 681 483 465 677 816 1140 1115 1098 1102 889 957 928 301 10 0 0 23 216 204 368 516 493 431
0 0 0 0 0 0 0 0 46 297 668 844 982 923 734 847 804 669 550 572 735 785 433 476 971 927 829 938 549 359 514 700 630 133 42 36 35 92 548 415 528 676 722
0 0 0 0 0 0 0 0 38 412 654 733 842 817 745 783 558 523 459 545 895 871 427 576 886 1044 879 1097 1111 1168 606 323 350 271 89 89 102 96 177 656 610 584 690
2 0 0 0 0 0 0 0 36 422 715 825 783 656 643 652 642 463 403 445 830 829 620 763 908 813 811 896 1347 1468 1122 687 600 473 369 242 193 244 311 335 491 657 750
27 16 0 3 0 0 18 74 139 328 613 774 868 724 538 395 542 579 379 355 671 681 680 353 816 990 912 942 1105 1037 707 502 591 714 634 495 428 419 426 445 456 524 634
48 63 31 19 27 88 123 164 246 431 539 635 794 858 763 374 287 308 465 402 447 661 760 486 399 794 644 754 867 1066 959 637 740 644 556 496 529 552 556 436 444 386 324
36 55 83 102 117 205 237 234 300 317 360 394 494 635 680 562 384 330 322 387 284 560 799 791 447 432 555 573 605 806 805 543 774 555 700 646 242 241 318 320 259 165 129
2 22 33 143 146 198 254 183 182 125 164 211 254 261 426 500 429 399 305 217 177 360 747 806 672 455 425 549 726 860 1066 817 792 304 295 814 937 756 519 460 295 13 0
3 6 45 83 133 155 228 194 158 159 108 126 162 196 136 165 242 274 325 318 244 65 288 650 675 585 616 501 688 804 1046 956 960 873 700 878 827 658 470 279 247 0 0
8 6 0 36 102 147 196 209 115 78 48 18 32 170 216 197 180 153 196 263 268 253 148 84 125 429 558 679 574 654 1026 1055 807 826 955 968 692 562 451 481 149 0 2
77 64 77 69 80 123 122 104 113 104 47 29 5 50 132 181 197 172 294 269 348 291 262 306 239 169 371 568 758 826 1076 1194 838 589 460 432 361 250 182 130 0 0 175
CIN
-0 -17 -1 -1 -1 -0 -2 -0 -0 -0 -0 -0 -0 -0 -0 -0 -0 -0 -0 -0 -0 -0 -0 -0 -0 -1 -2 -2 -0 -0 -0 -0 -0 -0 -0 -0 -0 -0 -0 -0 -0 -0 -0
-0 -30 -2 -1 -1 -1 -1 -0 -0 -0 -0 -0 -0 -0 -0 -1 -0 -1 -0 -0 -0 -0 -0 -0 -0 -0 -0 -0 -0 -0 -0 -0 -0 -0 -0 -0 -0 -0 -0 -0 -0 -0 -0
-0 -46 -2 -1 -1 -0 -1 -0 -0 -0 -0 -0 -0 -0 -0 -0 -0 -0 -0 -0 -0 -1 -0 -0 -0 -0 -0 -0 -0 -0 -0 -0 -0 -0 -1 -6 -8 -2 -5 -4 -1 -1 -0
-0 -57 -1 -1 -0 -0 -1 -0 -0 -0 -0 -0 -0 -0 -0 -0 -0 -0 -0 -0 -0 -0 -5 -0 -0 -0 -5 -7 -4 -1 -0 -0 -0 -4 -14 -4 -5 -13 -10 -0 -0 -0 -4
-0 -23 -0 -2 -0 -0 -0 -0 -0 -0 -0 -0 -0 -0 -0 -0 -0 -0 -27 -28 -28 -17 -3 -8 -4 -12 -13 -12 -21 -21 -14 -5 -26 -88 -59 -34 -3 -0 -0 -0 -1 -3 -0
-42 -9 -0 -0 -0 -0 -4 -0 -1 -1 -1 -0 -0 -0 -0 -0 -0 -3 -8 -38 -61 -95 -111 -73 -33 -42 -47 -87 -117 -87 -21 -0 -32 -82 -76 -10 -4 -0 -0 -0 -1 -0 -0
-69 -10 -2 -0 -0 -0 -0 -1 -2 -1 -1 -0 -0 -0 -0 -0 -1 -1 -1 -0 -42 -90 -180 -171 -111 -85 -120 -239 -131 -66 -48 -50 -157 -159 -97 -41 -2 -1 -4 -0 -1 -3 -0
-88 -17 -11 -0 -1 -0 -0 -0 -0 -2 -0 -0 -0 -0 -0 -0 -0 -2 -0 -0 -15 -46 -102 -129 -128 -170 -266 -353 -113 -87 -113 -152 -254 -0 -289 -238 -152 -137 -40 -14 -23 -22 -22
-20 -15 -8 -1 -1 -2 -0 -0 -2 -1 -0 -3 -16 -7 -10 -11 -3 -0 -1 -0 -20 -45 -60 -71 -120 -158 -194 -222 -193 -106 -89 -109 -325 -279 -230 -211 -149 -135 -150 -120 -101 -82 -67
-3 -11 -6 -9 -6 -0 -1 -0 -3 -1 -2 -12 -50 -44 -40 -25 -10 -12 -38 -34 -40 -56 -112 -162 -203 -247 -233 -227 -219 -98 -203 -275 -375 -313 -302 -290 -173 -126 -138 -87 -65 -78 -63
-10 -7 -13 -28 -22 -3 -1 -0 -1 -11 -15 -20 -45 -59 -85 -98 -77 -78 -63 -45 -34 -34 -60 -119 -153 -178 -196 -222 -214 -326 -135 -0 -0 -0 -0 -281 -406 -299 -231 -234 -245 -207 -199
-41 -21 -49 -45 -27 -14 -7 -1 -11 -14 -21 -49 -92 -103 -154 -162 -97 -64 -63 -75 -73 -63 -58 -66 -83 -117 -136 -171 -244 -234 -304 -71 -0 -0 -0 -0 -14 -428 -421 -409 -434 -416 -407
-56 -29 -44 -60 -49 -56 -60 -43 -62 -51 -52 -73 -86 -100 -101 -106 -109 -123 -133 -216 -214 -161 -123 -110 -108 -110 -127 -150 -170 -209 -234 -326 -0 -0 -0 -0 -0 -478 -489 -533 -0 -0 -0
-220 -113 -87 -85 -113 -97 -152 -95 -87 -87 -80 -86 -89 -103 -100 -118 -145 -149 -159 -181 -163 -142 -133 -120 -124 -131 -116 -139 -149 -162 -235 -356 -0 -0 -0 -0 -512 -445 -421 -450 -468 -477 -469
-0 -316 -196 -198 -104 -187 -194 -170 -108 -80 -72 -82 -82 -90 -95 -109 -93 -91 -87 -142 -168 -177 -150 -138 -149 -142 -134 -129 -150 -164 -173 -244 -438 -0 -0 -0 -456 -406 -383 -330 -351 -365 -342
-0 -0 -0 -0 -0 -0 -0 -29 -128 -107 -85 -82 -79 -80 -100 -96 -78 -91 -117 -135 -127 -166 -191 -166 -155 -139 -134 -147 -146 -190 -187 -194 -293 -331 -0 -0 -465 -326 -330 -268 -236 -242 -239
-0 -0 -0 -0 -0 -0 -0 -0 -266 -133 -98 -79 -76 -83 -91 -86 -73 -82 -100 -109 -119 -130 -191 -195 -144 -154 -158 -157 -184 -233 -233 -215 -240 -366 -418 -447 -432 -414 -248 -271 -225 -194 -188
-0 -0 -0 -0 -0 -0 -0 -0 -210 -116 -90 -83 -82 -88 -69 -74 -83 -73 -86 -106 -104 -108 -183 -166 -129 -113 -148 -130 -132 -144 -204 -279 -270 -296 -365 -369 -365 -389 -322 -225 -225 -205 -184
-85 -0 -0 -0 -0 -0 -0 -0 -199 -104 -79 -77 -79 -80 -85 -74 -82 -89 -102 -125 -101 -104 -145 -146 -129 -157 -130 -133 -103 -104 -135 -180 -214 -244 -252 -280 -292 -287 -276 -268 -238 -202 -190
-159 -172 -0 -140 -0 -0 -132 -157 -137 -106 -94 -81 -65 -76 -97 -99 -79 -81 -127 -145 -111 -113 -120 -185 -138 -135 -138 -146 -133 -119 -175 -201 -208 -176 -186 -218 -250 -242 -253 -242 -227 -187 -170
-128 -140 -142 -146 -151 -133 -127 -112 -89 -59 -55 -64 -61 -53 -56 -107 -125 -122 -99 -128 -131 -107 -104 -162 -185 -136 -152 -171 -141 -117 -116 -162 -157 -170 -221 -206 -211 -204 -206 -205 -191 -178 -183
-125 -134 -134 -127 -117 -115 -106 -106 -85 -63 -57 -46 -55 -52 -58 -71 -96 -123 -118 -109 -146 -96 -74 -92 -154 -162 -157 -165 -144 -145 -119 -110 -106 -160 -190 -188 -226 -226 -178 -163 -153 -157 -175
-30 -131 -127 -181 -180 -113 -113 -102 -108 -125 -102 -79 -79 -78 -66 -65 -84 -98 -112 -130 -137 -136 -67 -71 -92 -120 -127 -131 -110 -74 -56 -85 -112 -141 -150 -117 -106 -107 -117 -102 -115 -162 -0
-116 -142 -136 -139 -120 -199 -123 -95 -68 -62 -88 -84 -64 -50 -58 -73 -77 -105 -97 -103 -126 -180 -121 -62 -72 -89 -112 -94 -91 -83 -66 -64 -38 -62 -69 -61 -78 -74 -84 -99 -92 -0 -0
-178 -53 -0 -156 -172 -133 -122 -105 -83 -78 -128 -173 -161 -84 -84 -75 -66 -83 -84 -84 -91 -114 -147 -164 -137 -78 -78 -67 -63 -50 -38 -44 -54 -28 -35 -48 -75 -69 -66 -65 -91 -0 -9
-167 -168 -171 -148 -152 -149 -133 -113 -87 -70 -74 -92 -40 -147 -100 -96 -94 -76 -57 -65 -73 -86 -91 -92 -105 -119 -68 -52 -46 -43 -28 -13 -20 -29 -49 -80 -98 -141 -129 -115 -0 -0 -72
Wind_Speed
26 23 20 20 17 19 20 22 11 14 25 25 27 20 9 9 5 3 13 17 14 18 18 16 14 12 18 21 3 6 13 21 26 27 29 28 28 28 27 27 26 26 26
30 25 22 21 18 18 19 20 4 19 20 25 13 5 9 6 0 9 13 12 13 13 10 11 6 7 8 7 8 17 19 21 24 24 27 25 27 27 27 27 25 25 24
31 26 23 20 19 18 13 8 6 20 25 15 11 6 2 4 12 19 16 16 13 11 10 4 3 2 2 12 17 19 19 21 21 23 24 24 24 25 26 25 25 24 24
31 26 23 21 18 15 11 8 10 20 8 11 8 4 5 18 23 23 18 7 5 4 13 3 7 9 14 16 19 19 19 20 21 23 23 23 24 25 25 25 24 23 23
32 25 24 22 20 17 13 12 8 6 8 7 7 4 18 21 15 14 6 4 11 14 16 18 18 16 16 17 18 17 17 21 23 24 24 24 24 26 25 24 24 23 23
24 27 27 27 26 18 14 3 5 13 9 12 7 5 22 23 17 7 3 8 14 17 19 20 20 19 18 16 15 18 19 25 25 24 25 26 26 26 25 24 23 23 22
17 29 28 28 26 26 23 7 9 17 14 14 16 26 26 23 2 2 8 8 13 17 20 20 20 19 17 15 14 22 26 27 27 26 27 27 26 25 23 24 24 23 23
19 27 28 27 25 11 23 10 10 19 16 17 18 27 27 9 1 2 3 8 14 18 19 20 20 18 18 15 16 27 26 26 25 25 26 25 24 23 23 24 23 23 22
15 20 28 28 26 22 26 6 20 21 18 19 24 26 21 15 10 8 9 12 16 18 19 19 19 19 18 16 14 25 23 22 24 24 23 23 22 22 22 22 22 22 22
11 18 23 28 28 23 23 21 19 15 18 21 23 21 20 12 10 11 12 13 15 18 21 20 19 18 18 16 13 21 19 20 22 22 21 21 21 21 21 21 21 21 21
13 26 25 29 19 25 19 21 14 20 20 18 20 19 14 13 11 11 11 12 14 16 18 17 17 16 16 14 14 18 19 18 19 19 18 18 19 19 18 19 19 20 20
29 29 29 18 27 20 19 20 18 17 18 20 19 16 13 12 13 11 11 11 12 14 16 17 17 16 15 14 14 16 17 17 18 18 17 17 18 17 17 18 18 18 18
29 28 27 32 27 26 21 21 19 18 21 22 20 16 15 15 14 13 14 13 11 12 16 16 18 17 16 15 15 16 16 16 17 17 16 16 16 16 16 15 16 17 17
28 29 33 34 32 27 23 22 21 20 21 21 19 17 17 15 13 12 12 12 12 13 17 16 16 16 17 16 16 16 16 17 17 16 15 15 15 15 14 14 14 14 14
28 31 34 35 34 31 26 24 22 21 20 20 20 19 18 16 14 13 12 11 12 14 15 16 15 15 15 16 16 16 16 16 16 15 14 14 14 13 12 12 11 11 11
28 31 34 33 32 31 29 26 24 22 20 20 21 20 19 18 16 15 14 12 12 13 14 13 14 14 15 16 14 15 16 16 15 14 14 13 12 12 11 9 9 8 8
29 31 33 33 32 30 28 26 24 23 21 21 22 21 21 20 19 17 16 15 14 14 15 14 14 13 13 15 15 14 15 14 13 13 13 12 11 10 9 8 6 6 5
29 30 32 33 31 29 27 26 23 21 21 22 22 21 21 21 21 21 20 19 18 16 16 16 15 14 14 14 14 14 15 14 13 13 13 12 10 9 7 6 5 3 3
28 28 30 31 30 28 27 26 25 23 22 22 22 22 22 22 21 23 23 22 21 20 19 17 17 17 16 16 16 16 15 15 14 13 13 11 10 8 6 4 3 3 1
28 28 29 29 28 27 27 27 27 26 25 23 21 22 21 21 22 23 24 25 24 23 22 21 20 19 18 18 19 19 18 16 16 15 13 10 8 8 5 3 1 1 1
28 28 26 27 28 25 23 22 23 23 22 23 21 21 23 22 22 23 26 27 27 26 26 24 23 23 23 22 23 24 23 23 23 21 12 9 5 2 1 2 3 5 6
23 26 28 27 25 27 25 23 22 19 23 26 27 27 24 24 25 25 26 28 29 29 29 27 26 27 26 25 26 26 25 24 24 24 24 23 19 19 18 16 13 13 14
20 21 23 25 25 21 22 12 16 20 23 23 25 29 28 18 19 24 27 29 30 31 31 31 30 30 31 29 27 27 27 3 27 23 22 23 25 22 23 23 22 20 31
20 17 20 19 20 21 11 9 11 1 3 22 25 29 32 32 32 30 28 31 33 33 33 33 32 32 32 33 31 27 28 27 22 21 21 26 26 27 27 29 29 33 34
15 19 20 18 21 15 16 14 13 2 14 25 24 26 32 33 32 33 35 35 36 35 36 36 36 36 33 34 34 31 28 27 23 17 26 26 32 27 29 32 33 34 34
15 21 20 13 4 16 18 19 8 19 24 27 18 18 30 36 35 35 36 36 37 38 39 38 37 38 37 32 30 29 28 27 28 22 22 26 27 31 24 32 36 35 33
Wind_Direction
167 168 167 163 164 160 159 154 143 52 68 68 71 54 157 159 158 30 30 37 29 36 36 32 29 25 40 48 3 171 154 135 119 113 93 94 97 95 95 97 98 102 103
160 164 164 163 165 165 163 160 67 60 58 69 48 158 163 167 47 18 23 19 21 22 15 17 7 12 15 17 169 149 142 135 124 121 104 108 102 101 97 97 108 111 112
156 162 162 166 167 169 175 178 56 60 71 104 168 174 191 352 20 36 28 28 20 15 13 350 348 6 171 160 150 142 139 134 131 123 115 117 113 107 103 107 110 112 112
160 164 166 169 172 177 184 185 180 61 62 174 183 207 355 36 54 55 35 356 346 336 27 345 184 173 159 153 145 142 139 135 129 123 122 120 113 108 109 109 112 114 113
154 170 167 169 172 179 189 186 191 198 191 198 196 227 36 41 20 22 354 340 171 160 156 153 155 159 154 150 146 145 146 137 124 119 118 116 115 110 112 113 114 114 112
128 165 152 152 157 183 192 230 213 181 193 178 198 332 51 53 31 4 207 174 160 155 152 151 150 150 149 148 149 143 136 125 119 118 116 113 111 111 115 115 115 115 115
97 149 131 140 161 157 169 216 204 173 175 174 162 78 69 54 303 315 174 172 160 154 152 150 148 148 147 146 146 133 123 119 117 115 112 111 112 113 118 118 115 114 113
107 135 156 136 114 198 171 209 207 169 172 163 156 106 82 21 243 182 172 166 159 153 152 150 149 147 142 142 142 123 120 120 120 117 115 117 120 120 120 117 115 113 113
102 116 156 161 132 178 165 234 176 159 166 157 135 118 142 156 162 165 161 156 152 151 151 153 150 145 142 141 145 127 128 128 122 121 122 123 124 122 120 118 115 113 112
92 118 128 147 161 183 181 183 185 193 171 154 146 149 149 167 170 164 160 158 155 154 149 150 152 148 145 145 151 136 137 133 129 129 129 128 125 122 122 120 118 115 113
107 145 136 147 206 183 197 190 212 173 168 174 163 163 176 178 178 176 175 171 166 161 160 165 164 160 156 156 155 144 139 139 136 136 136 135 132 129 127 123 119 114 112
151 151 146 143 190 203 203 191 197 190 183 174 171 182 192 192 185 192 189 189 187 184 182 178 175 172 170 170 166 152 147 143 142 140 139 140 135 133 128 123 118 113 111
141 139 139 165 192 189 202 192 195 190 174 168 177 193 196 193 190 189 178 178 189 191 177 181 176 175 174 174 165 158 155 150 147 145 145 144 141 137 132 127 120 112 109
140 144 156 166 179 190 197 195 191 180 168 174 187 204 198 201 202 207 198 192 184 181 166 174 174 173 172 175 166 159 154 149 150 154 155 152 145 140 135 129 123 116 108
142 153 155 159 166 172 187 189 187 177 182 184 191 201 202 203 214 221 215 206 196 183 185 175 184 184 175 167 161 160 160 156 152 159 163 162 156 146 139 134 127 118 110
154 153 160 154 157 163 174 183 183 177 182 190 190 190 205 205 213 225 224 227 223 210 210 213 212 208 188 171 169 163 162 161 166 162 166 168 169 159 148 140 134 125 115
156 161 156 160 162 158 165 182 188 186 181 184 188 191 206 221 205 222 230 240 238 224 217 229 224 233 220 189 183 185 171 166 168 172 175 174 172 168 164 157 145 130 117
154 159 167 169 163 167 171 173 169 168 177 187 195 200 202 212 206 218 226 236 244 241 235 244 253 248 245 237 228 226 206 200 196 193 194 190 184 179 168 172 176 161 126
153 155 162 168 171 174 179 190 194 195 191 193 190 195 198 203 205 216 228 235 247 247 246 254 258 251 239 242 243 230 222 213 218 205 199 197 197 191 190 185 196 211 222
164 166 171 173 175 175 186 203 217 222 215 191 184 190 198 199 211 218 224 233 244 240 245 255 258 255 239 240 254 247 237 229 228 218 209 204 199 204 211 213 100 244 336
172 173 166 170 177 171 172 179 195 194 190 194 192 192 201 202 207 221 226 230 238 239 245 255 257 262 269 275 270 273 266 269 280 290 213 211 196 185 44 58 67 46 35
163 171 176 176 175 184 187 188 192 175 206 214 224 219 208 207 219 230 227 233 237 239 243 254 263 261 262 284 283 277 264 271 297 317 333 344 1 3 11 17 21 21 14
157 163 168 176 178 172 178 290 287 282 277 278 227 241 224 193 200 217 231 236 237 243 242 247 258 265 261 269 283 286 277 52 274 324 336 343 343 353 352 351 355 3 333
160 153 163 163 170 174 149 149 162 344 166 205 217 227 240 259 260 246 228 235 243 242 240 247 256 261 268 262 275 287 286 302 327 332 334 330 332 337 338 335 337 320 320
149 161 165 162 173 162 170 168 175 186 310 289 295 284 265 265 272 270 260 255 252 263 255 247 250 256 271 272 272 286 296 303 316 331 325 326 312 330 330 326 325 315 322
273 258 170 160 204 294 292 295 188 208 225 283 312 308 285 266 272 274 272 270 261 259 259 266 267 267 269 285 291 294 300 303 306 319 324 325 326 324 336 327 306 305 311